Dauntless Aviation
Airports Europe France
LFIY

Saint Jean d'Angely

FRANCE

Airport Info
Suggest Updated Information for this Airport

Location

Latitude / Longitude: 45°57'59"N / 0°31'31"W
  45°57.984'N / 0°31.518'W
  45.9664 / -0.5253

Runway Information

Runway 10 /28

Dimensions: 2789 x 164 ft.
Surface: U
 
Runway 10
Runway 28
Latitude: 45.966636 45.965728
Longitude: -0.528086 -0.518369
Elevation: 243 ft. 243 ft.
Runway true heading: 95.7 275.7
 

Instrument Procedures

IAPs (Instrument Approach Procedures)

  Visual Approach Chart
Satellite photo at:
Airport distance calculator
From:
Weather Reports

METAR

LFBG
20.0nm SE
LFBG 230600Z AUTO 14003KT 9999 -RA BKN048 OVC074 05/04 Q1007 BECMG RA BKN010 BKN030
LFBH
31.0nm W
LFBH 230600Z AUTO 10003KT 9999 SCT011 SCT019 OVC025 06/05 Q1007 TEMPO 4000 -SHRA BKN010 SCT015TCU
LFBU
34.5nm E
LFBU 230600Z AUTO VRB03KT 9999 -RA SCT018 BKN029 OVC040 05/04 Q1007 TEMPO 4000 -RA BKN005

TAF

LFBG
20.0nm SE
TAF LFBG 230200Z 2303/2403 18006KT 9999 SCT005 BKN050 BECMG 2306/2308 6000 RA BKN010 BKN030 BECMG 2311/2313 23010KT 9999 NSW SCT015TCU SCT050 TEMPO 2314/2318 23018G28KT 4000 SHRA
LFBH
31.0nm W
TAF LFBH 230500Z 2306/2406 15005KT 9999 BKN020 TEMPO 2306/2318 4000 -SHRA BKN010 SCT015TCU
LFBU
34.5nm E
TAF LFBU 230500Z 2306/2406 18005KT 9999 BKN030 TEMPO 2306/2310 4000 -RA BKN005
Safelog

 

Dauntless Aviation

© 2007-2017 Dauntless Aviation, all rights reserved
Information provided via PilotNav comes from a variety of official and unofficial data sources. As errors are possible, do not use PilotNav for primary flight planning purposes. Verify any information that you receive via PilotNav with current and canonical charts and other official documents. The material in this database is subject to database copyrights held by Dauntless Aviation and may not be copied without the express permission of Dauntless Aviation - licenses for use of part of all of this data are available for purchase; enquire via the Dauntless Aviation helpdesk. A number of mechanisms and markers exist in the database to protect against and identify infringement / copyright. Automated queries against this website are stictly prohibited, and all activity is logged and analyzed.